Location: Narrabri
(30.3170°S, 149.7830°E)
Time: 13:11:16
(UTC+10:00)

Vanguard 1 Rocket - Visible Passes

Search period start: 25 April 2018 00:00
Search period end: 05 May 2018 00:00
Orbit: 654 x 4223 km, 34.3° (Epoch: 24 April)

Date Brightness Start Highest point End Pass type
(mag) Time Alt. Az. Time Alt. Az. Time Alt. Az.
25 Apr 11.0 01:56:23 38° NNE 01:56:23 38° NNE 02:09:41 10° NE visible
25 Apr 11.2 04:13:41 23° NW 04:15:48 23° NW 04:32:35 10° N visible
25 Apr 8.7 19:21:23 10° W 19:29:06 82° SSW 19:35:09 39° ESE visible
25 Apr 9.9 21:46:29 10° WSW 21:52:25 44° WSW 21:52:25 44° WSW visible
26 Apr 11.5 00:49:25 23° NE 00:49:25 23° NE 00:55:53 10° NE visible
26 Apr 11.0 03:06:43 33° NNW 03:06:43 33° NNW 03:23:04 10° NNE visible
26 Apr 8.2 18:11:03 10° WNW 18:17:21 80° NNE 18:27:47 15° ESE visible
26 Apr 9.1 20:35:33 10° W 20:45:02 74° S 20:45:02 74° S visible
26 Apr 10.9 23:01:05 10° WSW 23:42:23 - ENE 23:02:19 15° WSW visible
27 Apr 11.2 01:59:41 32° NNE 01:59:41 32° NNE 02:11:20 10° NNE visible
27 Apr 11.4 04:16:59 16° NW 04:18:21 17° NW 04:31:28 10° NNW visible
27 Apr 8.7 19:24:52 10° W 19:32:29 75° S 19:37:41 42° ESE visible
27 Apr 10.0 21:49:53 10° WSW 21:54:57 38° WSW 21:54:57 38° WSW visible
28 Apr 11.5 00:52:34 20° NE 00:52:34 20° NE 00:57:57 10° NE visible
28 Apr 11.2 03:09:51 26° NNW 03:09:51 26° NNW 03:23:38 10° N visible
28 Apr 8.2 18:14:25 10° WNW 18:20:37 87° SSW 18:30:20 16° ESE visible
28 Apr 9.0 20:39:01 10° WSW 20:47:35 73° SSW 20:47:35 73° SSW visible
28 Apr 11.0 23:04:24 10° WSW 23:45:23 - ENE 23:04:51 12° WSW visible
29 Apr 11.3 02:02:40 26° N 02:02:40 26° N 02:12:35 10° NNE visible
29 Apr 11.6 04:19:57 11° NW 04:21:12 11° NW 04:25:57 10° NW visible
29 Apr 8.7 19:28:22 10° W 19:35:54 72° S 19:40:14 45° ESE visible
29 Apr 10.1 21:53:16 10° WSW 21:57:30 33° WSW 21:57:30 33° WSW visible
30 Apr 11.6 00:55:24 18° NNE 00:55:24 18° NNE 00:59:41 10° NE visible
30 Apr 11.4 03:12:40 19° NNW 03:12:40 19° NNW 03:23:18 10° N visible
30 Apr 8.2 18:17:53 10° W 18:24:00 76° S 18:32:53 18° ESE visible
30 Apr 9.0 20:42:28 10° WSW 20:50:09 70° SW 20:50:09 70° SW visible
30 Apr11.123:48:03NE23:48:03NE23:07:26WSWvisible
01 May 11.4 02:05:19 21° N 02:05:19 21° N 02:13:20 10° NNE visible
01 May 8.6 19:31:52 10° W 19:39:18 71° S 19:42:49 49° ESE visible
01 May 10.2 21:56:38 10° WSW 22:00:06 29° WSW 22:00:06 29° WSW visible
02 May 11.7 00:57:54 15° NNE 00:57:54 15° NNE 01:01:04 10° NNE visible
02 May 11.6 03:15:09 14° NNW 03:15:09 14° NNW 03:21:16 10° NNW visible
02 May 8.2 18:21:23 10° W 18:27:25 70° S 18:35:31 19° ESE visible
02 May 9.0 20:45:52 10° WSW 20:52:47 66° WSW 20:52:47 66° WSW visible
02 May11.223:50:24NE23:50:24NE23:10:04WSWvisible
03 May 11.6 02:07:39 17° N 02:07:39 17° N 02:13:24 10° N visible
03 May 8.5 19:35:21 10° WSW 19:42:41 73° S 19:45:30 55° ESE visible
03 May 10.3 22:00:01 10° WSW 22:02:47 24° WSW 22:02:47 24° WSW visible
04 May 11.7 01:00:05 13° NNE 01:00:05 13° NNE 01:01:59 10° NNE visible
04 May 8.2 18:24:54 10° W 18:30:53 67° S 18:38:14 21° E visible
04 May 9.1 20:49:16 10° WSW 20:55:31 60° WSW 20:55:31 60° WSW visible
